,,,PA_Meas_PMT16A,,PR_Meas_QMR101_102,,RH_Meas_QMH101,,SR_Meas_QMS101,,TA_Meas_QMH101,,GenWind,,GenWind,
date,time,status,PA,status,PR,status,RH,status,SR,status,TA,status,DirAvg,status,SpdAvg,
2010-04-12, 00:00:04,VALID,1009.53,VALID,0,VALID,99.6991,VALID,0,VALID,24.7854,VALID,173,VALID,0.35625,
2010-04-12, 00:01:04,VALID,1009.52,VALID,0,VALID,99.7601,VALID,0,VALID,24.7659,VALID,160,VALID,0.628516,
2010-04-12, 00:02:04,VALID,1009.49,VALID,0,VALID,99.7601,VALID,0.105969,VALID,24.7464,VALID,158,VALID,0.651172,
2010-04-12, 00:03:04,VALID,1009.48,VALID,0,VALID,99.6991,VALID,0.105969,VALID,24.7445,VALID,134,VALID,0.737891,
2010-04-12, 00:04:04,VALID,1009.46,VALID,0,VALID,99.7296,VALID,0,VALID,24.725,VALID,127,VALID,0.810156,
2010-04-12, 00:05:04,VALID,1009.43,VALID,0,VALID,99.7601,VALID,0,VALID,24.725,VALID,135,VALID,1.05391,
2010-04-12, 00:06:04,VALID,1009.42,VALID,0,VALID,99.7449,VALID,0.105969,VALID,24.7055,VALID,121,VALID,0.872266,
2010-04-12, 00:07:04,VALID,1009.39,VALID,0,VALID,99.6991,VALID,0.105969,VALID,24.725,VALID,130,VALID,1.17188,
2010-04-12, 00:08:04,VALID,1009.4,VALID,0,VALID,99.6991,VALID,0.105969,VALID,24.6842,VALID,125,VALID,1.08828,
2010-04-12, 00:09:04,VALID,1009.35,VALID,0,VALID,99.6838,VALID,0.105969,VALID,24.686,VALID,128,VALID,0.924219,
2010-04-12, 00:10:04,VALID,1009.32,VALID,0,VALID,99.6686,VALID,0,VALID,24.7055,VALID,125,VALID,0.567969,
2010-04-12, 00:11:04,VALID,1009.29,VALID,0,VALID,99.6533,VALID,0.105969,VALID,24.7269,VALID,104,VALID,0.612891,
2010-04-12, 00:12:04,VALID,1009.27,VALID,0,VALID,99.6762,VALID,0,VALID,24.7055,VALID,93,VALID,1.0625,
2010-04-12, 00:13:04,VALID,1009.27,VALID,0,VALID,99.661,VALID,0,VALID,24.7055,VALID,96,VALID,0.978125,
2010-04-12, 00:14:04,VALID,1009.24,VALID,0,VALID,99.6305,VALID,0,VALID,24.6666,VALID,96,VALID,0.593359,
2010-04-12, 00:15:04,VALID,1009.23,VALID,0,VALID,99.6305,VALID,0,VALID,24.7074,VALID,124,VALID,0.496094,
2010-04-12, 00:16:04,VALID,1009.21,VALID,0,VALID,99.6381,VALID,0,VALID,24.6666,VALID,115,VALID,0.621875,
2010-04-12, 00:17:04,VALID,1009.18,VALID,0,VALID,99.6152,VALID,0,VALID,24.6666,VALID,85,VALID,0.764844,
2010-04-12, 00:18:04,VALID,1009.17,VALID,0,VALID,99.6152,VALID,0,VALID,24.7074,VALID,72,VALID,0.404687,
2010-04-12, 00:19:04,VALID,1009.15,VALID,0,VALID,99.6076,VALID,0.105969,VALID,24.686,VALID,90,VALID,0.390234,
2010-04-12, 00:20:04,VALID,1009.11,VALID,0,VALID,99.6152,VALID,0,VALID,24.7055,VALID,94,VALID,0.325391,
2010-04-12, 00:21:04,VALID,1009.11,VALID,0,VALID,99.6305,VALID,0,VALID,24.686,VALID,85,VALID,0.0570313,
2010-04-12, 00:22:04,VALID,1009.11,VALID,0,VALID,99.6305,VALID,0,VALID,24.7055,VALID,85,VALID,0,
2010-04-12, 00:23:04,VALID,1009.1,VALID,0,VALID,99.6686,VALID,0,VALID,24.7269,VALID,85,VALID,0.496094,
2010-04-12, 00:24:04,VALID,1009.09,VALID,0,VALID,99.6838,VALID,0,VALID,24.686,VALID,85,VALID,0.500391,
2010-04-12, 00:25:04,VALID,1009.08,VALID,0,VALID,99.6686,VALID,0.105969,VALID,24.725,VALID,126,VALID,0.317578,
2010-04-12, 00:26:04,VALID,1009.07,VALID,0,VALID,99.6991,VALID,0.105969,VALID,24.686,VALID,160,VALID,0.966016,
2010-04-12, 00:27:04,VALID,1009.06,VALID,0,VALID,99.6991,VALID,0.105969,VALID,24.6879,VALID,166,VALID,0.789453,
2010-04-12, 00:28:04,VALID,1009.03,VALID,0,VALID,99.6762,VALID,0.105969,VALID,24.6684,VALID,166,VALID,0.473437,
2010-04-12, 00:29:04,VALID,1009.02,VALID,0,VALID,99.6762,VALID,0.105969,VALID,24.6471,VALID,155,VALID,0.646094,
2010-04-12, 00:30:04,VALID,1009.01,VALID,0,VALID,99.6991,VALID,0,VALID,24.6471,VALID,154,VALID,0.598828,
2010-04-12, 00:31:04,VALID,1008.99,VALID,0,VALID,99.722,VALID,0.105969,VALID,24.6276,VALID,146,VALID,0.345313,
2010-04-12, 00:32:04,VALID,1008.98,VALID,0,VALID,99.722,VALID,0,VALID,24.6471,VALID,146,VALID,0.197266,
2010-04-12, 00:33:04,VALID,1008.98,VALID,0,VALID,99.7372,VALID,0,VALID,24.6471,VALID,146,VALID,0.310156,
2010-04-12, 00:34:04,VALID,1009,VALID,0,VALID,99.7525,VALID,0,VALID,24.6276,VALID,146,VALID,0.202344,
2010-04-12, 00:35:04,VALID,1008.97,VALID,0,VALID,99.7449,VALID,0,VALID,24.6276,VALID,142,VALID,0.510156,
2010-04-12, 00:36:04,VALID,1008.98,VALID,0,VALID,99.7372,VALID,0,VALID,24.6471,VALID,137,VALID,0.532812,
2010-04-12, 00:37:04,VALID,1008.99,VALID,0,VALID,99.7754,VALID,0.105969,VALID,24.6471,VALID,112,VALID,1.03242,
2010-04-12, 00:38:04,VALID,1008.99,VALID,0,VALID,99.7754,VALID,0,VALID,24.6471,VALID,109,VALID,0.869922,
2010-04-12, 00:39:04,VALID,1008.98,VALID,0,VALID,99.7754,VALID,0.105969,VALID,24.686,VALID,114,VALID,1.04805,
2010-04-12, 00:40:04,VALID,1008.94,VALID,0,VALID,99.7906,VALID,0.105969,VALID,24.6666,VALID,112,VALID,0.513281,
2010-04-12, 00:41:04,VALID,1008.95,VALID,0,VALID,99.8059,VALID,0.105969,VALID,24.6666,VALID,112,VALID,1.15547,
2010-04-12, 00:42:04,VALID,1008.96,VALID,0,VALID,99.7906,VALID,0.105969,VALID,24.6666,VALID,139,VALID,0.713281,
2010-04-12, 00:43:04,VALID,1008.92,VALID,0,VALID,99.7982,VALID,0.105969,VALID,24.686,VALID,138,VALID,0.987891,
2010-04-12, 00:44:04,VALID,1008.91,VALID,0,VALID,99.8211,VALID,0.105969,VALID,24.6666,VALID,143,VALID,1.07266,
2010-04-12, 00:45:04,VALID,1008.88,VALID,0,VALID,99.8211,VALID,0.105969,VALID,24.6471,VALID,132,VALID,0.450781,
2010-04-12, 00:46:04,VALID,1008.9,VALID,0,VALID,99.7982,VALID,0.105969,VALID,24.6276,VALID,144,VALID,1.1957,
2010-04-12, 00:47:04,VALID,1008.86,VALID,0,VALID,99.8211,VALID,0,VALID,24.6294,VALID,140,VALID,0.981641,
2010-04-12, 00:48:04,VALID,1008.85,VALID,0,VALID,99.7982,VALID,0.105969,VALID,24.5886,VALID,144,VALID,0.717969,
2010-04-12, 00:49:04,VALID,1008.81,VALID,0,VALID,99.783,VALID,0,VALID,24.6081,VALID,132,VALID,1.06172,
2010-04-12, 00:50:04,VALID,1008.8,VALID,0,VALID,99.7906,VALID,0,VALID,24.5905,VALID,127,VALID,0.848437,
2010-04-12, 00:51:04,VALID,1008.8,VALID,0,VALID,99.7982,VALID,0,VALID,24.5905,VALID,148,VALID,1.07109,
2010-04-12, 00:52:04,VALID,1008.78,VALID,0,VALID,99.783,VALID,0,VALID,24.5905,VALID,138,VALID,0.790234,
2010-04-12, 00:53:04,VALID,1008.79,VALID,0,VALID,99.7906,VALID,0.105969,VALID,24.5691,VALID,128,VALID,1.22852,
2010-04-12, 00:54:04,VALID,1008.77,VALID,0,VALID,99.7906,VALID,0.105969,VALID,24.5691,VALID,121,VALID,0.863672,
2010-04-12, 00:55:04,VALID,1008.72,VALID,0,VALID,99.7906,VALID,0.105969,VALID,24.5905,VALID,138,VALID,0.8,
2010-04-12, 00:56:04,VALID,1008.73,VALID,0,VALID,99.7982,VALID,0,VALID,24.5905,VALID,123,VALID,1.14414,
2010-04-12, 00:57:04,VALID,1008.73,VALID,0,VALID,99.7982,VALID,0,VALID,24.5886,VALID,121,VALID,1.04727,
2010-04-12, 00:58:04,VALID,1008.72,VALID,0,VALID,99.8287,VALID,0,VALID,24.571,VALID,130,VALID,0.921875,
2010-04-12, 00:59:04,VALID,1008.7,VALID,0,VALID,99.8211,VALID,0.105969,VALID,24.5691,VALID,120,VALID,0.938281,
2010-04-12, 01:00:04,VALID,1008.69,VALID,0,VALID,99.8059,VALID,0,VALID,24.5691,VALID,130,VALID,0.988281,
2010-04-12, 01:01:04,VALID,1008.66,VALID,0,VALID,99.8135,VALID,0,VALID,24.6099,VALID,119,VALID,0.545703,
2010-04-12, 01:02:04,VALID,1008.63,VALID,0,VALID,99.7982,VALID,0.105969,VALID,24.5886,VALID,85,VALID,0.942578,
2010-04-12, 01:03:04,VALID,1008.63,VALID,0,VALID,99.7906,VALID,0,VALID,24.6294,VALID,91,VALID,0.462109,
2010-04-12, 01:04:04,VALID,1008.57,VALID,0,VALID,99.8364,VALID,0.105969,VALID,24.6081,VALID,95,VALID,0.979297,
2010-04-12, 01:05:04,VALID,1008.55,VALID,0,VALID,99.8516,VALID,0.105969,VALID,24.5691,VALID,94,VALID,0.974609,
2010-04-12, 01:06:04,VALID,1008.55,VALID,0,VALID,99.8287,VALID,0.105969,VALID,24.5905,VALID,112,VALID,1.03789,
2010-04-12, 01:07:04,VALID,1008.52,VALID,0,VALID,99.8287,VALID,0.105969,VALID,24.5886,VALID,108,VALID,0.570313,
2010-04-12, 01:08:04,VALID,1008.5,VALID,0,VALID,99.8364,VALID,0,VALID,24.5691,VALID,107,VALID,0.986328,
2010-04-12, 01:09:04,VALID,1008.47,VALID,0,VALID,99.8592,VALID,0,VALID,24.571,VALID,102,VALID,0.987891,
2010-04-12, 01:10:04,VALID,1008.45,VALID,0,VALID,99.8135,VALID,0,VALID,24.5496,VALID,111,VALID,1.09141,
2010-04-12, 01:11:04,VALID,1008.47,VALID,0,VALID,99.8211,VALID,0,VALID,24.5496,VALID,123,VALID,0.858984,
2010-04-12, 01:12:04,VALID,1008.44,VALID,0,VALID,99.8059,VALID,0,VALID,24.5905,VALID,130,VALID,0.588672,
2010-04-12, 01:13:04,VALID,1008.44,VALID,0,VALID,99.8211,VALID,0,VALID,24.571,VALID,125,VALID,0.705859,
2010-04-12, 01:14:04,VALID,1008.45,VALID,0,VALID,99.8287,VALID,0.105969,VALID,24.5301,VALID,135,VALID,0.745703,
2010-04-12, 01:15:04,VALID,1008.45,VALID,0,VALID,99.8364,VALID,0.105969,VALID,24.5496,VALID,139,VALID,0.826563,
2010-04-12, 01:16:04,VALID,1008.46,VALID,0,VALID,99.8211,VALID,0,VALID,24.571,VALID,145,VALID,1.01172,
2010-04-12, 01:17:04,VALID,1008.48,VALID,0,VALID,99.8364,VALID,0,VALID,24.5515,VALID,132,VALID,0.996484,
2010-04-12, 01:18:04,VALID,1008.47,VALID,0,VALID,99.8287,VALID,0,VALID,24.5515,VALID,140,VALID,1.12812,
2010-04-12, 01:19:04,VALID,1008.48,VALID,0,VALID,99.844,VALID,0,VALID,24.5106,VALID,132,VALID,1.10703,
2010-04-12, 01:20:04,VALID,1008.49,VALID,0,VALID,99.8516,VALID,0,VALID,24.532,VALID,135,VALID,1.29375,
2010-04-12, 01:21:04,VALID,1008.5,VALID,0,VALID,99.8287,VALID,0,VALID,24.5515,VALID,131,VALID,0.861328,
2010-04-12, 01:22:04,VALID,1008.48,VALID,0,VALID,99.8364,VALID,0,VALID,24.5515,VALID,138,VALID,0.782422,
2010-04-12, 01:23:04,VALID,1008.47,VALID,0,VALID,99.8364,VALID,0,VALID,24.5515,VALID,145,VALID,0.367969,
2010-04-12, 01:24:04,VALID,1008.48,VALID,0,VALID,99.844,VALID,0,VALID,24.5301,VALID,158,VALID,0.917969,
2010-04-12, 01:25:04,VALID,1008.46,VALID,0,VALID,99.8592,VALID,0,VALID,24.5515,VALID,153,VALID,0.702344,
2010-04-12, 01:26:04,VALID,1008.46,VALID,0,VALID,99.844,VALID,0,VALID,24.5515,VALID,150,VALID,0.469141,
2010-04-12, 01:27:04,VALID,1008.43,VALID,0,VALID,99.8364,VALID,0,VALID,24.5496,VALID,177,VALID,0.586719,
2010-04-12, 01:28:04,VALID,1008.4,VALID,0,VALID,99.8135,VALID,0,VALID,24.571,VALID,177,VALID,0.285156,
2010-04-12, 01:29:04,VALID,1008.37,VALID,0,VALID,99.8516,VALID,0.105969,VALID,24.5496,VALID,161,VALID,0.688672,
2010-04-12, 01:30:04,VALID,1008.36,VALID,0,VALID,99.8364,VALID,0.105969,VALID,24.5691,VALID,140,VALID,0.567578,
2010-04-12, 01:31:04,VALID,1008.34,VALID,0,VALID,99.844,VALID,0,VALID,24.571,VALID,187,VALID,0.281641,
2010-04-12, 01:32:04,VALID,1008.37,VALID,0,VALID,99.8287,VALID,0,VALID,24.5691,VALID,186,VALID,0,
2010-04-12, 01:33:04,VALID,1008.35,VALID,0,VALID,99.844,VALID,0,VALID,24.5691,VALID,169,VALID,0.401563,
2010-04-12, 01:34:04,VALID,1008.37,VALID,0,VALID,99.8364,VALID,0.105969,VALID,24.571,VALID,169,VALID,0.296484,
2010-04-12, 01:35:04,VALID,1008.36,VALID,0,VALID,99.8287,VALID,0,VALID,24.6099,VALID,169,VALID,0.122266,
2010-04-12, 01:36:04,VALID,1008.37,VALID,0,VALID,99.8592,VALID,0,VALID,24.5691,VALID,141,VALID,0.400391,
2010-04-12, 01:37:04,VALID,1008.34,VALID,0,VALID,99.8592,VALID,0,VALID,24.5691,VALID,145,VALID,0.551172,
2010-04-12, 01:38:04,VALID,1008.33,VALID,0,VALID,99.8592,VALID,0,VALID,24.5905,VALID,145,VALID,0.644922,
2010-04-12, 01:39:04,VALID,1008.31,VALID,0,VALID,99.8669,VALID,0,VALID,24.5691,VALID,150,VALID,0.9375,
2010-04-12, 01:40:04,VALID,1008.32,VALID,0,VALID,99.8592,VALID,0,VALID,24.5496,VALID,140,VALID,0.75,
2010-04-12, 01:41:04,VALID,1008.31,VALID,0,VALID,99.8592,VALID,0,VALID,24.5905,VALID,140,VALID,0.205078,
2010-04-12, 01:42:04,VALID,1008.29,VALID,0,VALID,99.844,VALID,0,VALID,24.5905,VALID,140,VALID,0.25625,
2010-04-12, 01:43:04,VALID,1008.28,VALID,0,VALID,99.8516,VALID,0,VALID,24.5691,VALID,137,VALID,0.554297,
2010-04-12, 01:44:04,VALID,1008.23,VALID,0,VALID,99.844,VALID,0,VALID,24.571,VALID,134,VALID,0.223047,
2010-04-12, 01:45:04,VALID,1008.23,VALID,0,VALID,99.844,VALID,0,VALID,24.6099,VALID,136,VALID,0.373047,
2010-04-12, 01:46:04,VALID,1008.18,VALID,0,VALID,99.8821,VALID,0,VALID,24.5905,VALID,152,VALID,0.320313,
2010-04-12, 01:47:04,VALID,1008.17,VALID,0,VALID,99.844,VALID,0,VALID,24.571,VALID,152,VALID,0.0078125,
2010-04-12, 01:48:04,VALID,1008.18,VALID,0,VALID,99.8364,VALID,0.105969,VALID,24.5905,VALID,147,VALID,0.474219,
2010-04-12, 01:49:04,VALID,1008.14,VALID,0,VALID,99.844,VALID,0,VALID,24.5496,VALID,160,VALID,0.395312,
2010-04-12, 01:50:04,VALID,1008.1,VALID,0,VALID,99.8516,VALID,0,VALID,24.571,VALID,160,VALID,0.154687,
2010-04-12, 01:51:04,VALID,1008.12,VALID,0,VALID,99.844,VALID,0,VALID,24.5515,VALID,148,VALID,0.371484,
2010-04-12, 01:52:04,VALID,1008.12,VALID,0,VALID,99.844,VALID,0.105969,VALID,24.5106,VALID,136,VALID,0.65625,
2010-04-12, 01:53:04,VALID,1008.12,VALID,0,VALID,99.8287,VALID,0,VALID,24.532,VALID,136,VALID,0.732422,
2010-04-12, 01:54:04,VALID,1008.09,VALID,0,VALID,99.8287,VALID,0,VALID,24.5125,VALID,138,VALID,0.592188,
2010-04-12, 01:55:04,VALID,1008.08,VALID,0,VALID,99.8211,VALID,0,VALID,24.532,VALID,119,VALID,0.586719,
2010-04-12, 01:56:04,VALID,1008.05,VALID,0,VALID,99.8135,VALID,0,VALID,24.5106,VALID,119,VALID,0.773828,
2010-04-12, 01:57:04,VALID,1008.05,VALID,0,VALID,99.8287,VALID,0.105969,VALID,24.5125,VALID,120,VALID,0.632422,
2010-04-12, 01:58:04,VALID,1008.02,VALID,0,VALID,99.7906,VALID,0,VALID,24.5125,VALID,128,VALID,0.873828,
2010-04-12, 01:59:04,VALID,1008.02,VALID,0,VALID,99.8211,VALID,0,VALID,24.5125,VALID,137,VALID,0.710547,
2010-04-12, 02:00:04,VALID,1008,VALID,0,VALID,99.7906,VALID,0,VALID,24.493,VALID,137,VALID,0.592969,
2010-04-12, 02:01:04,VALID,1007.99,VALID,0,VALID,99.8287,VALID,0,VALID,24.493,VALID,137,VALID,0.0234375,
2010-04-12, 02:02:04,VALID,1007.98,VALID,0,VALID,99.8211,VALID,0,VALID,24.493,VALID,137,VALID,0.316797,
2010-04-12, 02:03:04,VALID,1007.97,VALID,0,VALID,99.8211,VALID,0,VALID,24.493,VALID,137,VALID,0.325,
2010-04-12, 02:04:04,VALID,1007.96,VALID,0,VALID,99.8135,VALID,0,VALID,24.493,VALID,110,VALID,0.526563,
2010-04-12, 02:05:04,VALID,1007.92,VALID,0,VALID,99.8135,VALID,0,VALID,24.4735,VALID,110,VALID,0.119922,
2010-04-12, 02:06:04,VALID,1007.93,VALID,0,VALID,99.8059,VALID,0,VALID,24.4717,VALID,110,VALID,0.0542969,
2010-04-12, 02:07:04,VALID,1007.92,VALID,0,VALID,99.7982,VALID,0.105969,VALID,24.5125,VALID,110,VALID,0.0210938,
2010-04-12, 02:08:04,VALID,1007.92,VALID,0,VALID,99.7982,VALID,0,VALID,24.5125,VALID,110,VALID,0.0046875,
2010-04-12, 02:09:04,VALID,1007.88,VALID,0,VALID,99.8135,VALID,0,VALID,24.493,VALID,110,VALID,0.325,
2010-04-12, 02:10:04,VALID,1007.88,VALID,0,VALID,99.8211,VALID,0,VALID,24.493,VALID,110,VALID,0,
2010-04-12, 02:11:04,VALID,1007.87,VALID,0,VALID,99.8135,VALID,0,VALID,24.493,VALID,110,VALID,0,
2010-04-12, 02:12:04,VALID,1007.85,VALID,0,VALID,99.8211,VALID,0,VALID,24.493,VALID,110,VALID,0,
2010-04-12, 02:13:04,VALID,1007.83,VALID,0,VALID,99.8211,VALID,0,VALID,24.4735,VALID,110,VALID,0,
2010-04-12, 02:14:04,VALID,1007.83,VALID,0,VALID,99.8287,VALID,0,VALID,24.493,VALID,110,VALID,0,
2010-04-12, 02:15:04,VALID,1007.83,VALID,0,VALID,99.8135,VALID,0,VALID,24.4735,VALID,110,VALID,0,
2010-04-12, 02:16:04,VALID,1007.82,VALID,0,VALID,99.8364,VALID,0,VALID,24.4735,VALID,110,VALID,0,
2010-04-12, 02:17:04,VALID,1007.82,VALID,0,VALID,99.8287,VALID,0,VALID,24.4735,VALID,110,VALID,0,
2010-04-12, 02:18:04,VALID,1007.83,VALID,0,VALID,99.8364,VALID,0,VALID,24.4735,VALID,110,VALID,0,
2010-04-12, 02:19:04,VALID,1007.83,VALID,0,VALID,99.8592,VALID,0,VALID,24.454,VALID,111,VALID,0,
2010-04-12, 02:20:04,VALID,1007.86,VALID,0,VALID,99.8592,VALID,0,VALID,24.4327,VALID,111,VALID,0,
2010-04-12, 02:21:04,VALID,1007.84,VALID,0,VALID,99.8516,VALID,0,VALID,24.4345,VALID,111,VALID,0,
2010-04-12, 02:22:04,VALID,1007.83,VALID,0,VALID,99.8516,VALID,0,VALID,24.454,VALID,111,VALID,0,
2010-04-12, 02:23:04,VALID,1007.81,VALID,0,VALID,99.8516,VALID,0,VALID,24.4345,VALID,110,VALID,0,
2010-04-12, 02:24:04,VALID,1007.82,VALID,0,VALID,99.844,VALID,0,VALID,24.4345,VALID,110,VALID,0.0582031,
2010-04-12, 02:25:04,VALID,1007.8,VALID,0,VALID,99.8745,VALID,0,VALID,24.415,VALID,110,VALID,0,
2010-04-12, 02:26:04,VALID,1007.81,VALID,0,VALID,99.8745,VALID,0,VALID,24.4345,VALID,110,VALID,0,
2010-04-12, 02:27:04,VALID,1007.8,VALID,0,VALID,99.8897,VALID,0,VALID,24.3956,VALID,110,VALID,0,
2010-04-12, 02:28:04,VALID,1007.8,VALID,0,VALID,99.8516,VALID,0,VALID,24.415,VALID,110,VALID,0,
2010-04-12, 02:29:04,VALID,1007.78,VALID,0,VALID,99.8745,VALID,0,VALID,24.415,VALID,110,VALID,0,
2010-04-12, 02:30:04,VALID,1007.77,VALID,0,VALID,99.8745,VALID,0,VALID,24.3956,VALID,110,VALID,0,
2010-04-12, 02:31:04,VALID,1007.77,VALID,0,VALID,99.8974,VALID,0.105969,VALID,24.3956,VALID,111,VALID,0,
2010-04-12, 02:32:04,VALID,1007.76,VALID,0,VALID,99.8897,VALID,0,VALID,24.3761,VALID,110,VALID,0,
2010-04-12, 02:33:04,VALID,1007.75,VALID,0,VALID,99.8745,VALID,0,VALID,24.3761,VALID,110,VALID,0,
2010-04-12, 02:34:04,VALID,1007.73,VALID,0,VALID,99.8821,VALID,0,VALID,24.3352,VALID,110,VALID,0,
2010-04-12, 02:35:04,VALID,1007.71,VALID,0,VALID,99.8821,VALID,0.105969,VALID,24.3352,VALID,111,VALID,0,
2010-04-12, 02:36:04,VALID,1007.71,VALID,0,VALID,99.8974,VALID,0,VALID,24.3566,VALID,111,VALID,0,
2010-04-12, 02:37:04,VALID,1007.72,VALID,0,VALID,99.8974,VALID,0,VALID,24.3176,VALID,111,VALID,0.407422,
2010-04-12, 02:38:04,VALID,1007.7,VALID,0,VALID,99.9126,VALID,0,VALID,24.3176,VALID,111,VALID,0.263281,
2010-04-12, 02:39:04,VALID,1007.73,VALID,0,VALID,99.8974,VALID,0,VALID,24.2768,VALID,132,VALID,0.580469,
2010-04-12, 02:40:04,VALID,1007.7,VALID,0,VALID,99.8974,VALID,0,VALID,24.2378,VALID,132,VALID,0.582422,
2010-04-12, 02:41:04,VALID,1007.71,VALID,0,VALID,99.8745,VALID,0,VALID,24.2378,VALID,132,VALID,0.651953,
2010-04-12, 02:42:04,VALID,1007.72,VALID,0,VALID,99.8821,VALID,0,VALID,24.2591,VALID,132,VALID,0.698047,
2010-04-12, 02:43:04,VALID,1007.71,VALID,0,VALID,99.8974,VALID,0,VALID,24.2378,VALID,132,VALID,0.647656,
2010-04-12, 02:44:04,VALID,1007.7,VALID,0,VALID,99.8821,VALID,0,VALID,24.2591,VALID,132,VALID,0.480078,
2010-04-12, 02:45:04,VALID,1007.7,VALID,0,VALID,99.8821,VALID,0,VALID,24.2573,VALID,132,VALID,0.595703,
2010-04-12, 02:46:04,VALID,1007.69,VALID,0,VALID,99.8821,VALID,0,VALID,24.2573,VALID,131,VALID,0.563672,
2010-04-12, 02:47:04,VALID,1007.68,VALID,0,VALID,99.8897,VALID,0,VALID,24.2573,VALID,131,VALID,0.7125,
2010-04-12, 02:48:04,VALID,1007.69,VALID,0,VALID,99.8745,VALID,0,VALID,24.2786,VALID,131,VALID,0.530469,
2010-04-12, 02:49:04,VALID,1007.69,VALID,0,VALID,99.8974,VALID,0,VALID,24.2786,VALID,131,VALID,0.717969,
2010-04-12, 02:50:04,VALID,1007.66,VALID,0,VALID,99.8897,VALID,0,VALID,24.2786,VALID,131,VALID,0.639844,
2010-04-12, 02:51:04,VALID,1007.67,VALID,0,VALID,99.8897,VALID,0,VALID,24.2573,VALID,139,VALID,0.581641,
2010-04-12, 02:52:04,VALID,1007.63,VALID,0,VALID,99.8897,VALID,0,VALID,24.2591,VALID,141,VALID,0.541406,
2010-04-12, 02:53:04,VALID,1007.59,VALID,0,VALID,99.905,VALID,0.105969,VALID,24.2378,VALID,141,VALID,0.432031,
2010-04-12, 02:54:04,VALID,1007.59,VALID,0,VALID,99.9202,VALID,0,VALID,24.2183,VALID,141,VALID,0.388672,
2010-04-12, 02:55:04,VALID,1007.56,VALID,0,VALID,99.9431,VALID,0.105969,VALID,24.1988,VALID,145,VALID,0.631641,
2010-04-12, 02:56:04,VALID,1007.53,VALID,0,VALID,99.9355,VALID,0,VALID,24.2202,VALID,167,VALID,0.832422,
2010-04-12, 02:57:04,VALID,1007.51,VALID,0,VALID,99.9431,VALID,0.105969,VALID,24.2007,VALID,164,VALID,0.882031,
2010-04-12, 02:58:04,VALID,1007.49,VALID,0,VALID,99.9431,VALID,0,VALID,24.1599,VALID,155,VALID,0.505859,
2010-04-12, 02:59:04,VALID,1007.49,VALID,0,VALID,99.9355,VALID,0,VALID,24.1617,VALID,152,VALID,0.49375,
2010-04-12, 03:00:04,VALID,1007.47,VALID,0,VALID,99.9508,VALID,0,VALID,24.1404,VALID,153,VALID,0.344141,
2010-04-12, 03:01:04,VALID,1007.46,VALID,0,VALID,99.966,VALID,0,VALID,24.1404,VALID,153,VALID,0.334766,
2010-04-12, 03:02:04,VALID,1007.42,VALID,0,VALID,99.9431,VALID,0,VALID,24.1209,VALID,158,VALID,0.540234,
2010-04-12, 03:03:04,VALID,1007.4,VALID,0,VALID,99.966,VALID,0.105969,VALID,24.1209,VALID,159,VALID,0.424219,
2010-04-12, 03:04:04,VALID,1007.39,VALID,0,VALID,99.9279,VALID,0.105969,VALID,24.1209,VALID,143,VALID,0.549219,
2010-04-12, 03:05:04,VALID,1007.38,VALID,0,VALID,99.9431,VALID,0,VALID,24.1422,VALID,139,VALID,0.258203,
2010-04-12, 03:06:04,VALID,1007.34,VALID,0,VALID,99.9431,VALID,0,VALID,24.1014,VALID,143,VALID,0.437109,
2010-04-12, 03:07:04,VALID,1007.36,VALID,0,VALID,99.9202,VALID,0,VALID,24.1422,VALID,155,VALID,0.0046875,
2010-04-12, 03:08:04,VALID,1007.36,VALID,0,VALID,99.9279,VALID,0,VALID,24.1227,VALID,127,VALID,0.170703,
2010-04-12, 03:09:04,VALID,1007.33,VALID,0,VALID,99.9584,VALID,0.105969,VALID,24.1422,VALID,125,VALID,0.465234,
2010-04-12, 03:10:04,VALID,1007.33,VALID,0,VALID,99.9355,VALID,0,VALID,24.1227,VALID,135,VALID,0.562891,
2010-04-12, 03:11:04,VALID,1007.34,VALID,0,VALID,99.9431,VALID,0,VALID,24.1227,VALID,135,VALID,0.616406,
2010-04-12, 03:12:04,VALID,1007.33,VALID,0,VALID,99.9355,VALID,0.105969,VALID,24.1422,VALID,123,VALID,0.712891,
2010-04-12, 03:13:04,VALID,1007.36,VALID,0,VALID,99.9508,VALID,0,VALID,24.1227,VALID,125,VALID,0.00195313,
2010-04-12, 03:14:04,VALID,1007.35,VALID,0,VALID,99.9584,VALID,0,VALID,24.1014,VALID,139,VALID,0.614844,
2010-04-12, 03:15:04,VALID,1007.38,VALID,0,VALID,99.9431,VALID,0.105969,VALID,24.1014,VALID,139,VALID,0.442187,
2010-04-12, 03:16:04,VALID,1007.35,VALID,0,VALID,99.966,VALID,0,VALID,24.0837,VALID,149,VALID,0.745313,
2010-04-12, 03:17:04,VALID,1007.35,VALID,0,VALID,99.966,VALID,0,VALID,24.0837,VALID,156,VALID,0.721484,
2010-04-12, 03:18:04,VALID,1007.33,VALID,0,VALID,99.966,VALID,0,VALID,24.0837,VALID,153,VALID,0.878906,
2010-04-12, 03:19:04,VALID,1007.36,VALID,0,VALID,99.9736,VALID,0,VALID,24.0624,VALID,152,VALID,0.767969,
2010-04-12, 03:20:04,VALID,1007.34,VALID,0,VALID,99.966,VALID,0,VALID,24.0643,VALID,152,VALID,0.595703,
2010-04-12, 03:21:04,VALID,1007.32,VALID,0,VALID,99.9813,VALID,0,VALID,24.0448,VALID,152,VALID,0.490625,
2010-04-12, 03:22:04,VALID,1007.35,VALID,0,VALID,99.9736,VALID,0,VALID,24.0235,VALID,152,VALID,0.457031,
2010-04-12, 03:23:04,VALID,1007.34,VALID,0,VALID,99.966,VALID,0.105969,VALID,24.0235,VALID,147,VALID,0.841797,
2010-04-12, 03:24:04,VALID,1007.37,VALID,0,VALID,99.966,VALID,0,VALID,24.0448,VALID,157,VALID,0.500391,
2010-04-12, 03:25:04,VALID,1007.36,VALID,0,VALID,99.9508,VALID,0,VALID,24.0448,VALID,153,VALID,0.675781,
2010-04-12, 03:26:04,VALID,1007.35,VALID,0,VALID,99.9584,VALID,0,VALID,24.0448,VALID,145,VALID,0.841016,
2010-04-12, 03:27:04,VALID,1007.33,VALID,0,VALID,99.9355,VALID,0,VALID,24.0429,VALID,149,VALID,0.732031,
2010-04-12, 03:28:04,VALID,1007.33,VALID,0,VALID,99.9355,VALID,0,VALID,24.0643,VALID,125,VALID,1.11406,
2010-04-12, 03:29:04,VALID,1007.36,VALID,0,VALID,99.9431,VALID,0,VALID,24.0429,VALID,125,VALID,0.157813,
2010-04-12, 03:30:04,VALID,1007.34,VALID,0,VALID,99.9126,VALID,0,VALID,24.0837,VALID,123,VALID,0.44375,
2010-04-12, 03:31:04,VALID,1007.35,VALID,0,VALID,99.9202,VALID,0,VALID,24.0837,VALID,123,VALID,0.0140625,
2010-04-12, 03:32:04,VALID,1007.33,VALID,0,VALID,99.9431,VALID,0,VALID,24.1032,VALID,123,VALID,0,
2010-04-12, 03:33:04,VALID,1007.34,VALID,0,VALID,99.9126,VALID,0,VALID,24.0624,VALID,123,VALID,0.339063,
2010-04-12, 03:34:04,VALID,1007.32,VALID,0,VALID,99.9279,VALID,0,VALID,24.1032,VALID,123,VALID,0.739453,
2010-04-12, 03:35:04,VALID,1007.33,VALID,0,VALID,99.9355,VALID,0,VALID,24.0837,VALID,124,VALID,0.629687,
2010-04-12, 03:36:04,VALID,1007.34,VALID,0,VALID,99.9202,VALID,0,VALID,24.1032,VALID,138,VALID,0.708203,
2010-04-12, 03:37:04,VALID,1007.35,VALID,0,VALID,99.9279,VALID,0,VALID,24.0837,VALID,143,VALID,0.635156,
2010-04-12, 03:38:04,VALID,1007.36,VALID,0,VALID,99.9508,VALID,0,VALID,24.0837,VALID,139,VALID,0.816016,
2010-04-12, 03:39:04,VALID,1007.36,VALID,0,VALID,99.9508,VALID,0,VALID,24.0837,VALID,152,VALID,0.666797,
2010-04-12, 03:40:04,VALID,1007.36,VALID,0,VALID,99.9279,VALID,0,VALID,24.0837,VALID,145,VALID,0.635938,
2010-04-12, 03:41:04,VALID,1007.37,VALID,0,VALID,99.9355,VALID,0,VALID,24.0429,VALID,140,VALID,0.403125,
2010-04-12, 03:42:04,VALID,1007.37,VALID,0,VALID,99.9431,VALID,0,VALID,24.0624,VALID,129,VALID,0.735937,
2010-04-12, 03:43:04,VALID,1007.37,VALID,0,VALID,99.9355,VALID,0,VALID,24.0643,VALID,129,VALID,0.704687,